Liberty Promise — WWMZ — position and weather

sailwx.info

Track history (hours):
 
Tides and Currents Weather Stations Pressure Air Temp Water Temp Dewpoint Dewpoint Depression Visibility Wind Speed Wind Dir Waves Ship Positions

Liberty Promise

Owner: LIBERTY PROMISE CORPORATION, LAKE SUCCESS, NY. More information available from US FCC via Universal Licensing System and Coast Guard Vessel Documentation Center.

Last reported at 2014-Oct-30 18:00 UTC. Time now 2014-Oct-31 11:32 UTC.
Position N 39°42' W 023°12'.

Length 200 m; draft 9.6 m.

Type: Cargo ship. MMSI: 366102000.

Wind from 300 at 18 knots

Waves 4.5 meters (15 feet), 6 second period

Barometer 1008.0 mb
Air temperature 19.0 ° C
Visibility: greater than 10.8 NM
Dewpoint 13.8 ° C
Water temperature 19.7 ° C

Date/timePositionNaut miles runAvg speedWind from/ knotsBaromVisibWave heightAir tempDewpointWater temp
2014-Oct-30 18:00N 39°42' W 023°12'9415.6 300 / 181008.010.8 4.519.013.819.7
2014-Oct-30 12:00N 40°00' W 025°12'20517.0 270 / 161006.510.8 1.020.014.920.1
2014-Oct-30 00:00N 40°36' W 029°36'20617.1 260 / 161002.510.8 1.520.016.719.4
2014-Oct-29 12:00N 41°00' W 034°06'19516.2 250 / 16998.910.8 1.520.014.919.5
2014-Oct-29 00:00N 41°12' W 038°24'20316.9 230 / 201002.210.8 1.519.017.417.3
2014-Oct-28 12:00N 41°18' W 042°54'19416.2 240 / 181001.010.8 1.521.017.821.8
2014-Oct-28 00:00N 41°12' W 047°12'20016.7 210 / 101004.010.8 2.020.016.718.5
2014-Oct-27 12:00N 40°54' W 051°36'61017.0 240 / 22999.010.8 1.021.016.020.3
2014-Oct-26 00:00N 39°12' W 064°42'18115.1 320 / 171005.010.8 2.517.015.325.3
2014-Oct-25 12:00N 39°12' W 068°36'5515.7 310 / 171007.2 5.4 2.016.012.4
2014-Oct-25 08:28N 39°39' W 069°39'3215.5
2014-Oct-25 06:26N 39°53' W 070°15'3215.4
2014-Oct-25 04:19N 40°08' W 070°53'2715.3
2014-Oct-25 02:33N 40°21' W 071°24'1615.8
2014-Oct-25 01:33N 40°36' W 071°25'1615.8
2014-Oct-25 00:33N 40°52' W 071°25'1615.9
2014-Oct-24 23:34N 41°08' W 071°24'1615.5
2014-Oct-24 22:33N 41°24' W 071°25'1313.3
2014-Oct-24 21:34N 41°36' W 071°18'1211.8
2014-Oct-24 20:33N 41°47' W 071°23'0 0.2
2014-Oct-24 19:31N 41°47' W 071°23'0 0.0
2014-Oct-24 18:31N 41°47' W 071°23'0 0.0
2014-Oct-24 17:31N 41°47' W 071°23'0 0.0
2014-Oct-24 16:31N 41°47' W 071°23'0 0.0
2014-Oct-24 15:31N 41°47' W 071°23'0 0.0
2014-Oct-24 14:31N 41°47' W 071°23'0 0.0
2014-Oct-24 13:31N 41°47' W 071°23'0 0.0
2014-Oct-24 12:31N 41°47' W 071°23'0 0.0
2014-Oct-24 11:31N 41°47' W 071°23'1 1.1
2014-Oct-24 10:33N 41°46' W 071°22'1313.0
2014-Oct-24 09:34N 41°34' W 071°19'1212.2
2014-Oct-24 08:33N 41°21' W 071°22'1616.1
2014-Oct-24 07:33N 41°05' W 071°22'1717.4
2014-Oct-24 06:33N 40°48' W 071°22'1717.3
2014-Oct-24 05:33N 40°31' W 071°22'3215.4
2014-Oct-24 03:26N 40°01' W 071°40'24611.8
2014-Oct-23 06:33N 37°53' W 076°10'1815.6
2014-Oct-23 05:23N 38°11' W 076°14'3516.2
2014-Oct-23 03:14N 38°44' W 076°26'1217.3
2014-Oct-23 02:33N 38°56' W 076°23'1514.6
2014-Oct-23 01:33N 39°10' W 076°26'8 6.6
2014-Oct-23 00:24N 39°14' W 076°34'0 0.0
2014-Oct-22 23:30N 39°14' W 076°34'0 0.0
2014-Oct-22 22:30N 39°14' W 076°34'0 0.0
2014-Oct-22 21:30N 39°14' W 076°34'0 0.0
2014-Oct-22 20:30N 39°14' W 076°34'0 0.0
2014-Oct-22 19:27N 39°14' W 076°34'0 0.0
2014-Oct-22 18:24N 39°14' W 076°34'0 0.0
2014-Oct-22 17:33N 39°14' W 076°34'0 0.0
2014-Oct-22 16:30N 39°14' W 076°34'0 0.0
2014-Oct-22 15:33N 39°14' W 076°34'0 0.0
2014-Oct-22 14:27N 39°14' W 076°34'0 0.0
2014-Oct-22 13:33N 39°14' W 076°34'0 0.0
2014-Oct-22 12:30N 39°14' W 076°34'0 0.0
2014-Oct-22 11:33N 39°14' W 076°34'0 0.0
2014-Oct-22 10:33N 39°14' W 076°34'0 0.0
2014-Oct-22 09:30N 39°14' W 076°34'0 0.0
2014-Oct-22 08:33N 39°14' W 076°34'0 0.0
2014-Oct-22 07:30N 39°14' W 076°34'0 0.4
2014-Oct-22 06:33N 39°15' W 076°34'7 7.0
2014-Oct-22 05:33N 39°11' W 076°26'11 9.6
2014-Oct-22 04:26N 39°16' W 076°14'2211.7
2014-Oct-22 02:33N 39°31' W 075°53'7 7.1
2014-Oct-22 01:33N 39°32' W 075°44'9 8.6
2014-Oct-22 00:33N 39°35' W 075°33'8 7.5
2014-Oct-21 23:33N 39°42' W 075°31'1 0.5
2014-Oct-21 22:33N 39°43' W 075°31'0 0.0
2014-Oct-21 21:33N 39°43' W 075°31'0 0.0
2014-Oct-21 20:33N 39°43' W 075°31'0 0.0
2014-Oct-21 19:33N 39°43' W 075°31'0 0.0
2014-Oct-21 18:33N 39°43' W 075°31'0 0.0
2014-Oct-21 17:33N 39°43' W 075°31'0 0.0
2014-Oct-21 16:33N 39°43' W 075°31'0 0.0
2014-Oct-21 15:33N 39°43' W 075°31'0 0.0
2014-Oct-21 14:33N 39°43' W 075°31'0 0.0
2014-Oct-21 13:33N 39°43' W 075°31'0 0.0
2014-Oct-21 12:33N 39°43' W 075°31'0 0.0
2014-Oct-21 11:33N 39°43' W 075°31'0 0.0
2014-Oct-21 10:33N 39°43' W 075°31'0 0.0
2014-Oct-21 09:33N 39°43' W 075°31'0 0.0
2014-Oct-21 08:33N 39°43' W 075°31'0 0.0
2014-Oct-21 07:33N 39°43' W 075°31'0 0.0
2014-Oct-21 06:33N 39°43' W 075°31'0 0.0
2014-Oct-21 05:33N 39°43' W 075°31'0 0.0
2014-Oct-21 04:33N 39°43' W 075°31'0 0.0
2014-Oct-21 03:33N 39°43' W 075°31'0 0.0
2014-Oct-21 02:33N 39°43' W 075°31'0 0.0
2014-Oct-21 01:33N 39°43' W 075°31'0 0.0
2014-Oct-21 00:33N 39°43' W 075°31'0 0.0
2014-Oct-20 23:33N 39°43' W 075°31'1 1.0
2014-Oct-20 22:33N 39°43' W 075°30'1110.2
2014-Oct-20 21:28N 39°51' W 075°20'  
Track history (hours):
 
Tides and Currents Weather Stations Pressure Air Temp Water Temp Dewpoint Dewpoint Depression Visibility Wind Speed Wind Dir Waves Ship Positions

Liberty Promise

Owner: LIBERTY PROMISE CORPORATION, LAKE SUCCESS, NY. More information available from US FCC via Universal Licensing System and Coast Guard Vessel Documentation Center.

Last reported at 2014-Oct-30 18:00 UTC. Time now 2014-Oct-31 11:32 UTC.
Position N 39°42' W 023°12'.

Length 200 m; draft 9.6 m.

Type: Cargo ship. MMSI: 366102000.

Wind from 300 at 18 knots

Waves 4.5 meters (15 feet), 6 second period

Barometer 1008.0 mb
Air temperature 19.0 ° C
Visibility: greater than 10.8 NM
Dewpoint 13.8 ° C
Water temperature 19.7 ° C

Date/timePositionNaut miles runAvg speedWind from/ knotsBaromVisibWave heightAir tempDewpointWater temp
2014-Oct-30 18:00N 39°42' W 023°12'9415.6 300 / 181008.010.8 4.519.013.819.7
2014-Oct-30 12:00N 40°00' W 025°12'20517.0 270 / 161006.510.8 1.020.014.920.1
2014-Oct-30 00:00N 40°36' W 029°36'20617.1 260 / 161002.510.8 1.520.016.719.4
2014-Oct-29 12:00N 41°00' W 034°06'19516.2 250 / 16998.910.8 1.520.014.919.5
2014-Oct-29 00:00N 41°12' W 038°24'20316.9 230 / 201002.210.8 1.519.017.417.3
2014-Oct-28 12:00N 41°18' W 042°54'19416.2 240 / 181001.010.8 1.521.017.821.8
2014-Oct-28 00:00N 41°12' W 047°12'20016.7 210 / 101004.010.8 2.020.016.718.5
2014-Oct-27 12:00N 40°54' W 051°36'61017.0 240 / 22999.010.8 1.021.016.020.3
2014-Oct-26 00:00N 39°12' W 064°42'18115.1 320 / 171005.010.8 2.517.015.325.3
2014-Oct-25 12:00N 39°12' W 068°36'5515.7 310 / 171007.2 5.4 2.016.012.4
2014-Oct-25 08:28N 39°39' W 069°39'3215.5
2014-Oct-25 06:26N 39°53' W 070°15'3215.4
2014-Oct-25 04:19N 40°08' W 070°53'2715.3
2014-Oct-25 02:33N 40°21' W 071°24'1615.8
2014-Oct-25 01:33N 40°36' W 071°25'1615.8
2014-Oct-25 00:33N 40°52' W 071°25'1615.9
2014-Oct-24 23:34N 41°08' W 071°24'1615.5
2014-Oct-24 22:33N 41°24' W 071°25'1313.3
2014-Oct-24 21:34N 41°36' W 071°18'1211.8
2014-Oct-24 20:33N 41°47' W 071°23'0 0.2
2014-Oct-24 19:31N 41°47' W 071°23'0 0.0
2014-Oct-24 18:31N 41°47' W 071°23'0 0.0
2014-Oct-24 17:31N 41°47' W 071°23'0 0.0
2014-Oct-24 16:31N 41°47' W 071°23'0 0.0
2014-Oct-24 15:31N 41°47' W 071°23'0 0.0
2014-Oct-24 14:31N 41°47' W 071°23'0 0.0
2014-Oct-24 13:31N 41°47' W 071°23'0 0.0
2014-Oct-24 12:31N 41°47' W 071°23'0 0.0
2014-Oct-24 11:31N 41°47' W 071°23'1 1.1
2014-Oct-24 10:33N 41°46' W 071°22'1313.0
2014-Oct-24 09:34N 41°34' W 071°19'1212.2
2014-Oct-24 08:33N 41°21' W 071°22'1616.1
2014-Oct-24 07:33N 41°05' W 071°22'1717.4
2014-Oct-24 06:33N 40°48' W 071°22'1717.3
2014-Oct-24 05:33N 40°31' W 071°22'3215.4
2014-Oct-24 03:26N 40°01' W 071°40'24611.8
2014-Oct-23 06:33N 37°53' W 076°10'1815.6
2014-Oct-23 05:23N 38°11' W 076°14'3516.2
2014-Oct-23 03:14N 38°44' W 076°26'1217.3
2014-Oct-23 02:33N 38°56' W 076°23'1514.6
2014-Oct-23 01:33N 39°10' W 076°26'8 6.6
2014-Oct-23 00:24N 39°14' W 076°34'0 0.0
2014-Oct-22 23:30N 39°14' W 076°34'0 0.0
2014-Oct-22 22:30N 39°14' W 076°34'0 0.0
2014-Oct-22 21:30N 39°14' W 076°34'0 0.0
2014-Oct-22 20:30N 39°14' W 076°34'0 0.0
2014-Oct-22 19:27N 39°14' W 076°34'0 0.0
2014-Oct-22 18:24N 39°14' W 076°34'0 0.0
2014-Oct-22 17:33N 39°14' W 076°34'0 0.0
2014-Oct-22 16:30N 39°14' W 076°34'0 0.0
2014-Oct-22 15:33N 39°14' W 076°34'0 0.0
2014-Oct-22 14:27N 39°14' W 076°34'0 0.0
2014-Oct-22 13:33N 39°14' W 076°34'0 0.0
2014-Oct-22 12:30N 39°14' W 076°34'0 0.0
2014-Oct-22 11:33N 39°14' W 076°34'0 0.0
2014-Oct-22 10:33N 39°14' W 076°34'0 0.0
2014-Oct-22 09:30N 39°14' W 076°34'0 0.0
2014-Oct-22 08:33N 39°14' W 076°34'0 0.0
2014-Oct-22 07:30N 39°14' W 076°34'0 0.4
2014-Oct-22 06:33N 39°15' W 076°34'7 7.0
2014-Oct-22 05:33N 39°11' W 076°26'11 9.6
2014-Oct-22 04:26N 39°16' W 076°14'2211.7
2014-Oct-22 02:33N 39°31' W 075°53'7 7.1
2014-Oct-22 01:33N 39°32' W 075°44'9 8.6
2014-Oct-22 00:33N 39°35' W 075°33'8 7.5
2014-Oct-21 23:33N 39°42' W 075°31'1 0.5
2014-Oct-21 22:33N 39°43' W 075°31'0 0.0
2014-Oct-21 21:33N 39°43' W 075°31'0 0.0
2014-Oct-21 20:33N 39°43' W 075°31'0 0.0
2014-Oct-21 19:33N 39°43' W 075°31'0 0.0
2014-Oct-21 18:33N 39°43' W 075°31'0 0.0
2014-Oct-21 17:33N 39°43' W 075°31'0 0.0
2014-Oct-21 16:33N 39°43' W 075°31'0 0.0
2014-Oct-21 15:33N 39°43' W 075°31'0 0.0
2014-Oct-21 14:33N 39°43' W 075°31'0 0.0
2014-Oct-21 13:33N 39°43' W 075°31'0 0.0
2014-Oct-21 12:33N 39°43' W 075°31'0 0.0
2014-Oct-21 11:33N 39°43' W 075°31'0 0.0
2014-Oct-21 10:33N 39°43' W 075°31'0 0.0
2014-Oct-21 09:33N 39°43' W 075°31'0 0.0
2014-Oct-21 08:33N 39°43' W 075°31'0 0.0
2014-Oct-21 07:33N 39°43' W 075°31'0 0.0
2014-Oct-21 06:33N 39°43' W 075°31'0 0.0
2014-Oct-21 05:33N 39°43' W 075°31'0 0.0
2014-Oct-21 04:33N 39°43' W 075°31'0 0.0
2014-Oct-21 03:33N 39°43' W 075°31'0 0.0
2014-Oct-21 02:33N 39°43' W 075°31'0 0.0
2014-Oct-21 01:33N 39°43' W 075°31'0 0.0
2014-Oct-21 00:33N 39°43' W 075°31'0 0.0
2014-Oct-20 23:33N 39°43' W 075°31'1 1.0
2014-Oct-20 22:33N 39°43' W 075°30'1110.2
2014-Oct-20 21:28N 39°51' W 075°20'  

Dump ship's entire track history